Sagittarian — WCY5210 — position and weather

sailwx.info

Track history (hours):
 
Tides and Currents Weather Stations Pressure Air Temp Water Temp Dewpoint Dewpoint Depression Visibility Wind Speed Wind Dir Waves Ship Positions

Sagittarian

More information available from US FCC via Universal Licensing System and Coast Guard Vessel Documentation Center.

Last reported at 2014-Aug-30 02:08 UTC. Time now 2014-Aug-30 20:38 UTC.
Position N 37°46' W 122°23'.

; draft 3 m.

Type: Towing. MMSI: 366969510.

Date/timePositionNaut miles runAvg speedWind from/ knotsBaromVisibWave heightAir tempDewpointWater temp
2014-Aug-30 02:08N 37°46' W 122°23'3 5.8
2014-Aug-30 01:33N 37°50' W 122°24'6 5.6
2014-Aug-30 00:33N 37°55' W 122°25'1 1.4
2014-Aug-29 23:33N 37°56' W 122°26'9 7.1
2014-Aug-29 22:13N 38°03' W 122°18'8 2.8
2014-Aug-29 19:22N 38°02' W 122°08'4 0.3
2014-Aug-29 06:03N 38°04' W 122°13'4 7.2
2014-Aug-29 05:33N 38°03' W 122°17'8 7.5
2014-Aug-29 04:32N 37°59' W 122°25'0 0.3
2014-Aug-29 03:11N 37°60' W 122°25'710.5
2014-Aug-29 02:33N 38°03' W 122°18'  
2014-Aug-25 23:24N 38°03' W 122°13'12 6.1
2014-Aug-25 21:30N 37°57' W 122°26'5 5.1
2014-Aug-25 20:33N 37°53' W 122°24'6 0.4
2014-Aug-25 03:33N 37°47' W 122°23'9 6.6
2014-Aug-25 02:12N 37°55' W 122°25'2 2.5
2014-Aug-25 01:33N 37°54' W 122°25'1 0.9
2014-Aug-25 00:33N 37°54' W 122°26'3 2.9
2014-Aug-24 23:33N 37°52' W 122°24'5 0.2
2014-Aug-23 20:31N 37°46' W 122°23'0 0.0
2014-Aug-23 19:33N 37°46' W 122°23'0 0.0
2014-Aug-23 03:33N 37°46' W 122°23'0 0.0
2014-Aug-23 02:33N 37°46' W 122°23'0 0.0
2014-Aug-23 01:33N 37°46' W 122°23'0 0.0
2014-Aug-23 00:31N 37°46' W 122°23'0 0.0
2014-Aug-22 23:33N 37°46' W 122°23'0 0.0
2014-Aug-22 22:33N 37°46' W 122°23'0 0.0
2014-Aug-22 21:33N 37°46' W 122°23'0 0.0
2014-Aug-22 20:33N 37°46' W 122°23'0 0.0
2014-Aug-22 19:33N 37°46' W 122°23'7 6.6
2014-Aug-22 18:33N 37°53' W 122°25'8 7.8
2014-Aug-22 17:29N 38°01' W 122°23'6 5.6
2014-Aug-22 16:25N 38°03' W 122°16'  
Track history (hours):
 
Tides and Currents Weather Stations Pressure Air Temp Water Temp Dewpoint Dewpoint Depression Visibility Wind Speed Wind Dir Waves Ship Positions

Sagittarian

More information available from US FCC via Universal Licensing System and Coast Guard Vessel Documentation Center.

Last reported at 2014-Aug-30 02:08 UTC. Time now 2014-Aug-30 20:38 UTC.
Position N 37°46' W 122°23'.

; draft 3 m.

Type: Towing. MMSI: 366969510.

Date/timePositionNaut miles runAvg speedWind from/ knotsBaromVisibWave heightAir tempDewpointWater temp
2014-Aug-30 02:08N 37°46' W 122°23'3 5.8
2014-Aug-30 01:33N 37°50' W 122°24'6 5.6
2014-Aug-30 00:33N 37°55' W 122°25'1 1.4
2014-Aug-29 23:33N 37°56' W 122°26'9 7.1
2014-Aug-29 22:13N 38°03' W 122°18'8 2.8
2014-Aug-29 19:22N 38°02' W 122°08'4 0.3
2014-Aug-29 06:03N 38°04' W 122°13'4 7.2
2014-Aug-29 05:33N 38°03' W 122°17'8 7.5
2014-Aug-29 04:32N 37°59' W 122°25'0 0.3
2014-Aug-29 03:11N 37°60' W 122°25'710.5
2014-Aug-29 02:33N 38°03' W 122°18'  
2014-Aug-25 23:24N 38°03' W 122°13'12 6.1
2014-Aug-25 21:30N 37°57' W 122°26'5 5.1
2014-Aug-25 20:33N 37°53' W 122°24'6 0.4
2014-Aug-25 03:33N 37°47' W 122°23'9 6.6
2014-Aug-25 02:12N 37°55' W 122°25'2 2.5
2014-Aug-25 01:33N 37°54' W 122°25'1 0.9
2014-Aug-25 00:33N 37°54' W 122°26'3 2.9
2014-Aug-24 23:33N 37°52' W 122°24'5 0.2
2014-Aug-23 20:31N 37°46' W 122°23'0 0.0
2014-Aug-23 19:33N 37°46' W 122°23'0 0.0
2014-Aug-23 03:33N 37°46' W 122°23'0 0.0
2014-Aug-23 02:33N 37°46' W 122°23'0 0.0
2014-Aug-23 01:33N 37°46' W 122°23'0 0.0
2014-Aug-23 00:31N 37°46' W 122°23'0 0.0
2014-Aug-22 23:33N 37°46' W 122°23'0 0.0
2014-Aug-22 22:33N 37°46' W 122°23'0 0.0
2014-Aug-22 21:33N 37°46' W 122°23'0 0.0
2014-Aug-22 20:33N 37°46' W 122°23'0 0.0
2014-Aug-22 19:33N 37°46' W 122°23'7 6.6
2014-Aug-22 18:33N 37°53' W 122°25'8 7.8
2014-Aug-22 17:29N 38°01' W 122°23'6 5.6
2014-Aug-22 16:25N 38°03' W 122°16'  

Dump ship's entire track history